Weather in Kolishley

Russia / Penza Oblast     52°41′51″N   44°31′51″E
temp.,
°C
wind,
m/s
gust,
m/s
humid.,
%
clouds,
%
prec.,
mm/h
press.,
hPa
HPBL,
m
28 september, tue
tue2800:00+6nne5788100 0.1 1018729
03:00+5nne5891100 0.3 1019623
06:00+6ne6789100 0.4 1020896
09:00+6ne6787100 0.7 1022944
12:00+6ne6779100 0.1 1024890
15:00+7ne5668100 0.1 10261073
18:00+6nne486796 0.0 1027307
21:00+4nne410735 0.0 1029254
29 september, wed
wed2900:00+3nne378011 0.0 1030142
03:00+2nne378279 0.0 1030149
06:00+1nne38845 0.0 1031174
09:00+5ne46665 0.0 1031464
12:00+9nne455255 0.0 10311256
15:00+10n454839 0.0 10301500
18:00+7n356347 0.0 1031100
21:00+5nne35705 0.0 103288
30 september, thu
thu3000:00+4nne22725 0.0 103227
03:00+4n237371 0.0 103246
06:00+3n347498 0.0 103287
09:00+7nne356225 0.0 1033400
12:00+10nne34545 0.0 10331140
15:00+11n345398 0.0 10321498
18:00+9n3457100 0.0 1032120
21:00+9nnw2265100 0.0 103345
1 october, fri
fri100:00+8nnw2271100 0.0 103353
03:00+8nw2474100 0.0 1033112
06:00+8wnw3676100 0.0 1033207
09:00+10nw4673100 0.0 1034383
12:00+11nnw3574100 0.0 1034609
15:00+13nnw356967 0.0 1033897
18:00+11nnw3679100 0.1 1033216
21:00+11nnw2482100 0.1 1034127
2 october, sat
sat200:00+11nnw2484100 0.0 1033120
03:00+10nnw2484100 0.1 1034110
06:00+10nnw2484100 0.0 1033112
09:00+12n337638 0.0 1034322
12:00+15n236210 0.0 1033939
15:00+15n2258100 0.1 10321156
18:00+14n2362100 0.0 103362
21:00+13ne2472100 0.0 1033127